UAL1626 KRSW-KEWR

Flight info

Callsign UAL1626
Flight time 2h 15m
Altitude 33000
Route CSHEL8 CAMJO Q99 QUART PHLBO4
Aircraft B739/M-SDE2E3FGHIRWXY/LB1

Departure

Time 2026-04-30 20:28
Airport Southwest Florida International Airport (KRSW)

Arrival

Time 2026-04-30 22:44
Airport Newark Liberty International Airport (KEWR)
Time Latitude Longitude Altitude Speed Heading
2026-04-30 20:01 26.52951 -81.75449 43 ft 0 kts 279°
2026-04-30 20:15 26.52947 -81.75427 43 ft 4 kts 279°
2026-04-30 20:15 26.52943 -81.75400 43 ft 4 kts 287°
2026-04-30 20:16 26.52931 -81.75379 43 ft 4 kts 347°
2026-04-30 20:16 26.52907 -81.75379 43 ft 1 kts
2026-04-30 20:16 26.52902 -81.75380 43 ft 0 kts
2026-04-30 20:20 26.52904 -81.75379 43 ft 2 kts
2026-04-30 20:20 26.52949 -81.75371 43 ft 11 kts
2026-04-30 20:21 26.53047 -81.75354 43 ft 17 kts
2026-04-30 20:21 26.53165 -81.75334 42 ft 17 kts
2026-04-30 20:21 26.53275 -81.75342 43 ft 16 kts 328°
2026-04-30 20:21 26.53365 -81.75413 43 ft 15 kts 324°
2026-04-30 20:22 26.53449 -81.75481 43 ft 15 kts 324°
2026-04-30 20:22 26.53529 -81.75440 43 ft 14 kts 54°
2026-04-30 20:22 26.53586 -81.75352 41 ft 14 kts 54°
2026-04-30 20:22 26.53641 -81.75269 43 ft 13 kts 53°
2026-04-30 20:23 26.53696 -81.75185 41 ft 15 kts 54°
2026-04-30 20:23 26.53772 -81.75068 41 ft 20 kts 54°
2026-04-30 20:23 26.53853 -81.74945 41 ft 19 kts 53°
2026-04-30 20:23 26.53930 -81.74824 42 ft 19 kts 55°
2026-04-30 20:24 26.54005 -81.74708 44 ft 18 kts 53°
2026-04-30 20:24 26.54078 -81.74597 44 ft 17 kts 54°
2026-04-30 20:24 26.54147 -81.74490 43 ft 17 kts 54°
2026-04-30 20:24 26.54215 -81.74387 44 ft 16 kts 53°
2026-04-30 20:25 26.54353 -81.74173 43 ft 17 kts 54°
2026-04-30 20:25 26.54420 -81.74070 44 ft 16 kts 53°
2026-04-30 20:26 26.54477 -81.73999 44 ft 0 kts 25°
2026-04-30 20:26 26.54492 -81.73995 44 ft 6 kts
2026-04-30 20:27 26.54531 -81.74109 43 ft 12 kts 234°
2026-04-30 20:27 26.54032 -81.74878 43 ft 123 kts 234°
2026-04-30 20:28 26.52673 -81.76941 464 ft 181 kts 234°
2026-04-30 20:28 26.51129 -81.79263 1722 ft 194 kts 237°
2026-04-30 20:29 26.49669 -81.82122 2485 ft 227 kts 265°
2026-04-30 20:30 26.50306 -81.87385 4285 ft 263 kts 313°
2026-04-30 20:30 26.55554 -81.89686 6355 ft 280 kts 345°
2026-04-30 20:31 26.61282 -81.91360 8509 ft 288 kts 343°
2026-04-30 20:32 26.67316 -81.91415 10427 ft 304 kts
2026-04-30 20:32 26.71777 -81.90671 10758 ft 344 kts
2026-04-30 20:33 26.74206 -81.90285 10906 ft 362 kts
2026-04-30 20:33 26.79254 -81.88684 11136 ft 400 kts 28°
2026-04-30 20:33 26.81663 -81.87060 11440 ft 408 kts 28°
2026-04-30 20:34 26.86592 -81.83803 12361 ft 413 kts 27°
2026-04-30 20:34 26.91572 -81.80609 13256 ft 418 kts 26°
2026-04-30 20:35 26.94117 -81.79027 13689 ft 419 kts 24°
2026-04-30 20:35 26.96728 -81.77564 14105 ft 421 kts 22°
2026-04-30 20:35 27.02164 -81.75209 14826 ft 417 kts
2026-04-30 20:36 27.05028 -81.75358 15282 ft 410 kts 346°
2026-04-30 20:36 27.07771 -81.76167 15692 ft 409 kts 340°
2026-04-30 20:36 27.13180 -81.78118 16402 ft 413 kts 339°
2026-04-30 20:37 27.15927 -81.79113 16772 ft 415 kts 339°
2026-04-30 20:37 27.18686 -81.80094 17135 ft 417 kts 339°
2026-04-30 20:37 27.21459 -81.81066 17482 ft 419 kts 339°
2026-04-30 20:37 27.24246 -81.82035 17791 ft 421 kts 339°
2026-04-30 20:38 27.27051 -81.83006 18124 ft 423 kts 339°
2026-04-30 20:38 27.29870 -81.83981 18458 ft 424 kts 339°
2026-04-30 20:38 27.32690 -81.84958 18728 ft 426 kts 339°
2026-04-30 20:39 27.38407 -81.86941 19229 ft 432 kts 339°
2026-04-30 20:39 27.41242 -81.87925 19514 ft 433 kts 339°
2026-04-30 20:39 27.44124 -81.88926 19734 ft 436 kts 339°
2026-04-30 20:40 27.49947 -81.90949 20220 ft 439 kts 339°
2026-04-30 20:40 27.52870 -81.91966 20438 ft 441 kts 339°
2026-04-30 20:40 27.55809 -81.92989 20629 ft 443 kts 339°
2026-04-30 20:41 27.61715 -81.95047 21052 ft 446 kts 339°
2026-04-30 20:41 27.64682 -81.96081 21254 ft 447 kts 339°
2026-04-30 20:41 27.67625 -81.97109 21409 ft 449 kts 339°
2026-04-30 20:41 27.70617 -81.98154 21589 ft 451 kts 339°
2026-04-30 20:42 27.73612 -81.99200 21773 ft 452 kts 339°
2026-04-30 20:42 27.76623 -82.00252 21935 ft 453 kts 339°
2026-04-30 20:42 27.82669 -82.02325 22260 ft 456 kts 339°
2026-04-30 20:43 27.85712 -82.03342 22416 ft 457 kts 339°
2026-04-30 20:43 27.88763 -82.04360 22600 ft 457 kts 339°
2026-04-30 20:43 27.91773 -82.05367 22721 ft 459 kts 339°
2026-04-30 20:44 27.97904 -82.07431 22994 ft 461 kts 339°
2026-04-30 20:44 28.00981 -82.08469 23154 ft 461 kts 339°
2026-04-30 20:44 28.07133 -82.10546 23605 ft 459 kts 339°
2026-04-30 20:45 28.13478 -82.11707 23861 ft 468 kts 352°
2026-04-30 20:45 28.16702 -82.11938 23966 ft 470 kts 352°
2026-04-30 20:45 28.20006 -82.12166 24076 ft 471 kts 352°
2026-04-30 20:46 28.29779 -82.13006 24473 ft 472 kts 351°
2026-04-30 20:46 28.33052 -82.13325 24599 ft 473 kts 351°
2026-04-30 20:47 28.39618 -82.13970 24833 ft 474 kts 351°
2026-04-30 20:47 28.42909 -82.14290 24956 ft 475 kts 351°
2026-04-30 20:48 28.49395 -82.15286 25327 ft 463 kts 335°
2026-04-30 20:48 28.52288 -82.16706 25553 ft 458 kts 332°
2026-04-30 20:48 28.55195 -82.18194 25731 ft 458 kts 332°
2026-04-30 20:48 28.58106 -82.19661 25933 ft 457 kts 332°
2026-04-30 20:49 28.61019 -82.21106 26154 ft 456 kts 332°
2026-04-30 20:49 28.63935 -82.22538 26355 ft 456 kts 332°
2026-04-30 20:49 28.66847 -82.23958 26573 ft 455 kts 333°
2026-04-30 20:50 28.72644 -82.26776 27092 ft 451 kts 333°
2026-04-30 20:50 28.75490 -82.28160 27328 ft 451 kts 332°
2026-04-30 20:50 28.78369 -82.29562 27580 ft 450 kts 332°
2026-04-30 20:50 28.81238 -82.30960 27896 ft 448 kts 332°
2026-04-30 20:51 28.84097 -82.32354 28234 ft 445 kts 332°
2026-04-30 20:51 28.89774 -82.35127 28849 ft 442 kts 332°
2026-04-30 20:51 28.92598 -82.36508 29182 ft 440 kts 332°
2026-04-30 20:52 28.95406 -82.37881 29536 ft 438 kts 332°
2026-04-30 20:52 28.98198 -82.39248 29858 ft 437 kts 332°
2026-04-30 20:52 29.03727 -82.41957 30577 ft 433 kts 332°
2026-04-30 20:53 29.06481 -82.43307 30970 ft 430 kts 332°
2026-04-30 20:53 29.09226 -82.44654 31321 ft 428 kts 332°
2026-04-30 20:53 29.11957 -82.45996 31692 ft 426 kts 332°
2026-04-30 20:54 29.17417 -82.48681 31919 ft 428 kts 332°
2026-04-30 20:54 29.20148 -82.50025 31926 ft 427 kts 332°
2026-04-30 20:55 29.28517 -82.53233 31946 ft 432 kts 348°
2026-04-30 20:55 29.34462 -82.53892 31938 ft 432 kts 348°
2026-04-30 20:56 29.43431 -82.54958 31927 ft 432 kts 347°
2026-04-30 20:57 29.52408 -82.56081 31915 ft 433 kts 347°
2026-04-30 20:57 29.58365 -82.56833 31912 ft 434 kts 347°
2026-04-30 20:58 29.67379 -82.57971 31904 ft 434 kts 347°
2026-04-30 20:58 29.73389 -82.58730 31916 ft 437 kts 347°
2026-04-30 20:59 29.82492 -82.59885 31901 ft 443 kts 347°
2026-04-30 21:00 29.94765 -82.61435 31888 ft 444 kts 347°
2026-04-30 21:01 30.03974 -82.62604 31891 ft 443 kts 347°
2026-04-30 21:02 30.13109 -82.63765 31879 ft 441 kts 347°
2026-04-30 21:02 30.19188 -82.64540 31878 ft 439 kts 347°
2026-04-30 21:03 30.25255 -82.65315 31878 ft 437 kts 346°
2026-04-30 21:03 30.31294 -82.66086 31876 ft 436 kts 346°
2026-04-30 21:04 30.37278 -82.66852 31882 ft 435 kts 346°
2026-04-30 21:04 30.46297 -82.68009 31878 ft 435 kts 346°
2026-04-30 21:05 30.52358 -82.68445 31851 ft 450 kts
2026-04-30 21:05 30.58551 -82.67057 31873 ft 454 kts
2026-04-30 21:06 30.64754 -82.65677 31869 ft 454 kts
2026-04-30 21:06 30.70928 -82.64351 31871 ft 454 kts
2026-04-30 21:07 30.77174 -82.63029 32046 ft 458 kts
2026-04-30 21:07 30.80300 -82.62365 32339 ft 456 kts
2026-04-30 21:07 30.83417 -82.61700 32691 ft 454 kts
2026-04-30 21:08 30.86510 -82.61038 32878 ft 452 kts
2026-04-30 21:08 30.89602 -82.60380 32874 ft 451 kts
2026-04-30 21:08 30.95715 -82.59075 32864 ft 448 kts
2026-04-30 21:09 31.01829 -82.57770 32874 ft 446 kts
2026-04-30 21:09 31.07936 -82.56354 32864 ft 453 kts
2026-04-30 21:10 31.10932 -82.55086 32864 ft 465 kts 16°
2026-04-30 21:10 31.13834 -82.53371 32879 ft 469 kts 18°
2026-04-30 21:10 31.19584 -82.49798 32868 ft 472 kts 18°
2026-04-30 21:11 31.25404 -82.46189 32857 ft 474 kts 18°
2026-04-30 21:11 31.31261 -82.42603 32854 ft 476 kts 17°
2026-04-30 21:12 31.37105 -82.39043 32851 ft 478 kts 17°
2026-04-30 21:12 31.43026 -82.35438 32855 ft 482 kts 17°
2026-04-30 21:13 31.49011 -82.31784 32872 ft 488 kts 17°
2026-04-30 21:13 31.55055 -82.28084 32875 ft 491 kts 18°
2026-04-30 21:14 31.61121 -82.24363 32872 ft 493 kts 17°
2026-04-30 21:14 31.67160 -82.20654 32869 ft 493 kts 17°
2026-04-30 21:15 31.73246 -82.16912 32868 ft 493 kts 17°
2026-04-30 21:15 31.79318 -82.13172 32866 ft 492 kts 17°
2026-04-30 21:16 31.85381 -82.09433 32871 ft 491 kts 17°
2026-04-30 21:16 31.91432 -82.05697 32871 ft 491 kts 17°
2026-04-30 21:17 31.97437 -82.01985 32869 ft 490 kts 17°
2026-04-30 21:17 32.03471 -81.98247 32864 ft 490 kts 17°
2026-04-30 21:18 32.09506 -81.94504 32862 ft 490 kts 17°
2026-04-30 21:18 32.15540 -81.90762 32860 ft 489 kts 17°
2026-04-30 21:19 32.21575 -81.87186 32860 ft 488 kts 15°
2026-04-30 21:19 32.27661 -81.83657 32862 ft 487 kts 15°
2026-04-30 21:20 32.33741 -81.80109 32860 ft 487 kts 15°
2026-04-30 21:20 32.39816 -81.76537 32863 ft 487 kts 15°
2026-04-30 21:21 32.45884 -81.72959 32849 ft 488 kts 15°
2026-04-30 21:22 32.54962 -81.67594 32852 ft 488 kts 15°
2026-04-30 21:23 32.67092 -81.60409 32874 ft 487 kts 15°
2026-04-30 21:23 32.76155 -81.55026 32881 ft 487 kts 15°
2026-04-30 21:24 32.82218 -81.51417 32878 ft 488 kts 15°
2026-04-30 21:24 32.88293 -81.47797 32875 ft 488 kts 15°
2026-04-30 21:25 32.97403 -81.42357 32872 ft 489 kts 15°
2026-04-30 21:26 33.06479 -81.36924 32867 ft 489 kts 15°
2026-04-30 21:27 33.15590 -81.31457 32871 ft 488 kts 15°
2026-04-30 21:27 33.21649 -81.27813 32880 ft 488 kts 15°
2026-04-30 21:28 33.30699 -81.22363 32878 ft 487 kts 14°
2026-04-30 21:29 33.39773 -81.16886 32879 ft 487 kts 14°
2026-04-30 21:30 33.54881 -81.07737 32866 ft 487 kts 14°
2026-04-30 21:31 33.69940 -80.98578 32858 ft 486 kts 14°
2026-04-30 21:32 33.78981 -80.93063 32870 ft 485 kts 14°
2026-04-30 21:32 33.84955 -80.89377 32867 ft 489 kts 17°
2026-04-30 21:33 33.87840 -80.87091 32869 ft 504 kts 26°
2026-04-30 21:33 33.93331 -80.81766 32868 ft 508 kts 28°
2026-04-30 21:34 33.98846 -80.76458 32861 ft 506 kts 26°
2026-04-30 21:34 34.07157 -80.68696 32871 ft 506 kts 26°
2026-04-30 21:35 34.12730 -80.63484 32876 ft 507 kts 26°
2026-04-30 21:35 34.18299 -80.58255 32885 ft 507 kts 26°
2026-04-30 21:36 34.23871 -80.53014 32900 ft 508 kts 26°
2026-04-30 21:37 34.35030 -80.42646 32901 ft 507 kts 25°
2026-04-30 21:37 34.40640 -80.37467 32905 ft 507 kts 26°
2026-04-30 21:38 34.46244 -80.32269 32901 ft 507 kts 26°
2026-04-30 21:38 34.51845 -80.27059 32886 ft 508 kts 26°
2026-04-30 21:39 34.57414 -80.21872 32893 ft 508 kts 26°
2026-04-30 21:39 34.63013 -80.16647 32878 ft 508 kts 26°
2026-04-30 21:40 34.68604 -80.11422 32887 ft 507 kts 26°
2026-04-30 21:40 34.74206 -80.06206 32874 ft 507 kts 25°
2026-04-30 21:41 34.79777 -80.01041 32879 ft 506 kts 25°
2026-04-30 21:41 34.85410 -79.95935 32878 ft 504 kts 24°
2026-04-30 21:42 34.91104 -79.90963 32880 ft 503 kts 24°
2026-04-30 21:42 34.96801 -79.85972 32882 ft 504 kts 24°
2026-04-30 21:43 35.01526 -79.81797 32879 ft 506 kts 25°
2026-04-30 21:43 35.08148 -79.75924 32884 ft 507 kts 25°
2026-04-30 21:44 35.13849 -79.70860 32877 ft 507 kts 25°
2026-04-30 21:44 35.19570 -79.65848 32872 ft 506 kts 24°
2026-04-30 21:45 35.25313 -79.60965 32883 ft 506 kts 23°
2026-04-30 21:45 35.31086 -79.56056 32887 ft 506 kts 23°
2026-04-30 21:46 35.36872 -79.51103 32886 ft 507 kts 24°
2026-04-30 21:46 35.42640 -79.46143 32881 ft 507 kts 24°
2026-04-30 21:47 35.48380 -79.41196 32887 ft 507 kts 24°
2026-04-30 21:47 35.54149 -79.36219 32880 ft 507 kts 24°
2026-04-30 21:48 35.59922 -79.31234 32897 ft 507 kts 24°
2026-04-30 21:48 35.65691 -79.26236 32893 ft 508 kts 24°
2026-04-30 21:49 35.71471 -79.21221 32886 ft 508 kts 24°
2026-04-30 21:49 35.77212 -79.16235 32886 ft 508 kts 24°
2026-04-30 21:50 35.82994 -79.11212 32886 ft 508 kts 24°
2026-04-30 21:50 35.88770 -79.06187 32898 ft 508 kts 24°
2026-04-30 21:51 35.94548 -79.01149 32884 ft 508 kts 24°
2026-04-30 21:51 36.00279 -78.96141 32885 ft 508 kts 24°
2026-04-30 21:52 36.06050 -78.91089 32906 ft 508 kts 25°
2026-04-30 21:52 36.11815 -78.86033 32896 ft 508 kts 25°
2026-04-30 21:53 36.17573 -78.80975 32909 ft 508 kts 25°
2026-04-30 21:53 36.23337 -78.75903 32906 ft 509 kts 25°
2026-04-30 21:54 36.29065 -78.70851 32897 ft 509 kts 25°
2026-04-30 21:54 36.34837 -78.65751 32917 ft 511 kts 26°
2026-04-30 21:55 36.37742 -78.63182 33088 ft 513 kts 26°
2026-04-30 21:55 36.40638 -78.60615 33367 ft 511 kts 26°
2026-04-30 21:55 36.43524 -78.58055 33669 ft 509 kts 26°
2026-04-30 21:55 36.46427 -78.55560 33969 ft 504 kts 23°
2026-04-30 21:56 36.49329 -78.53236 34247 ft 501 kts 22°
2026-04-30 21:56 36.52288 -78.50953 34486 ft 500 kts 21°
2026-04-30 21:56 36.55253 -78.48690 34688 ft 501 kts 21°
2026-04-30 21:56 36.58219 -78.46418 34833 ft 501 kts 21°
2026-04-30 21:57 36.64162 -78.41806 34891 ft 505 kts 22°
2026-04-30 21:57 36.70098 -78.37138 34897 ft 504 kts 22°
2026-04-30 21:58 36.75968 -78.32508 34898 ft 503 kts 22°
2026-04-30 21:58 36.81875 -78.27850 34896 ft 502 kts 23°
2026-04-30 21:59 36.87768 -78.23191 34897 ft 501 kts 23°
2026-04-30 22:00 36.96565 -78.16224 34882 ft 501 kts 24°
2026-04-30 22:00 37.05397 -78.09194 34879 ft 502 kts 24°
2026-04-30 22:01 37.11287 -78.04487 34884 ft 502 kts 24°
2026-04-30 22:01 37.17176 -77.99772 34878 ft 503 kts 25°
2026-04-30 22:02 37.23033 -77.95076 34873 ft 503 kts 25°
2026-04-30 22:02 37.28941 -77.90329 34874 ft 504 kts 26°
2026-04-30 22:03 37.34845 -77.85576 34885 ft 505 kts 26°
2026-04-30 22:03 37.40770 -77.80801 34878 ft 505 kts 26°
2026-04-30 22:04 37.46662 -77.76093 34876 ft 505 kts 26°
2026-04-30 22:05 37.55566 -77.68955 34867 ft 506 kts 26°
2026-04-30 22:05 37.61485 -77.64157 34875 ft 506 kts 27°
2026-04-30 22:06 37.67399 -77.59354 34870 ft 506 kts 27°
2026-04-30 22:06 37.76228 -77.52180 34866 ft 505 kts 27°
2026-04-30 22:07 37.82140 -77.47376 34875 ft 505 kts 27°
2026-04-30 22:07 37.88050 -77.42567 34869 ft 505 kts 27°
2026-04-30 22:08 37.92952 -77.38566 34870 ft 505 kts 27°
2026-04-30 22:08 37.99814 -77.32958 34873 ft 505 kts 27°
2026-04-30 22:09 38.05718 -77.28131 34866 ft 505 kts 28°
2026-04-30 22:09 38.11620 -77.23295 34873 ft 505 kts 28°
2026-04-30 22:10 38.16530 -77.19265 34871 ft 505 kts 28°
2026-04-30 22:10 38.23382 -77.13629 34872 ft 505 kts 28°
2026-04-30 22:11 38.31217 -77.07067 34872 ft 508 kts 31°
2026-04-30 22:12 38.36874 -77.01645 34880 ft 510 kts 33°
2026-04-30 22:12 38.42479 -76.96102 34879 ft 510 kts 33°
2026-04-30 22:13 38.48121 -76.90603 34880 ft 510 kts 33°
2026-04-30 22:13 38.53751 -76.85161 34869 ft 511 kts 33°
2026-04-30 22:14 38.59417 -76.79680 34877 ft 511 kts 33°
2026-04-30 22:14 38.65073 -76.74191 34879 ft 512 kts 33°
2026-04-30 22:15 38.70743 -76.68673 34871 ft 512 kts 33°
2026-04-30 22:15 38.76376 -76.63183 34870 ft 512 kts 33°
2026-04-30 22:16 38.82041 -76.57650 34864 ft 512 kts 33°
2026-04-30 22:17 38.93349 -76.46569 34882 ft 512 kts 33°
2026-04-30 22:17 39.01857 -76.38206 34444 ft 519 kts 34°
2026-04-30 22:18 39.04628 -76.35321 33804 ft 515 kts 37°
2026-04-30 22:18 39.09892 -76.29187 32087 ft 506 kts 40°
2026-04-30 22:19 39.14999 -76.23078 30387 ft 496 kts 39°
2026-04-30 22:19 39.17527 -76.20098 29503 ft 493 kts 39°
2026-04-30 22:19 39.22611 -76.14156 27859 ft 495 kts 39°
2026-04-30 22:20 39.25140 -76.11200 27237 ft 505 kts 39°
2026-04-30 22:20 39.30415 -76.05010 26200 ft 513 kts 39°
2026-04-30 22:20 39.33035 -76.01927 25729 ft 508 kts 39°
2026-04-30 22:21 39.35642 -75.98855 25285 ft 503 kts 39°
2026-04-30 22:21 39.38216 -75.95819 24846 ft 500 kts 39°
2026-04-30 22:21 39.40775 -75.92800 24424 ft 497 kts 39°
2026-04-30 22:21 39.43325 -75.89790 23991 ft 495 kts 39°
2026-04-30 22:22 39.45825 -75.86836 23569 ft 493 kts 39°
2026-04-30 22:22 39.48349 -75.83849 23143 ft 491 kts 39°
2026-04-30 22:22 39.50860 -75.80875 22717 ft 489 kts 39°
2026-04-30 22:22 39.53368 -75.77901 22291 ft 486 kts 39°
2026-04-30 22:23 39.55857 -75.74946 21868 ft 484 kts 39°
2026-04-30 22:23 39.58323 -75.72016 21450 ft 481 kts 39°
2026-04-30 22:23 39.60775 -75.69098 21031 ft 477 kts 39°
2026-04-30 22:23 39.63218 -75.66190 20613 ft 474 kts 39°
2026-04-30 22:24 39.65597 -75.63355 20209 ft 470 kts 39°
2026-04-30 22:24 39.67994 -75.60496 19797 ft 467 kts 39°
2026-04-30 22:24 39.70376 -75.57642 19313 ft 465 kts 40°
2026-04-30 22:24 39.72745 -75.54791 18844 ft 463 kts 40°
2026-04-30 22:25 39.75094 -75.51958 18372 ft 460 kts 40°
2026-04-30 22:25 39.77428 -75.49140 17900 ft 454 kts 40°
2026-04-30 22:25 39.79724 -75.46364 17437 ft 446 kts 40°
2026-04-30 22:25 39.81975 -75.43643 16986 ft 441 kts 40°
2026-04-30 22:26 39.86401 -75.38289 16224 ft 432 kts 40°
2026-04-30 22:26 39.88596 -75.35631 15792 ft 430 kts 40°
2026-04-30 22:26 39.90777 -75.32988 15368 ft 428 kts 40°
2026-04-30 22:27 39.92959 -75.30342 14932 ft 426 kts 40°
2026-04-30 22:27 39.95117 -75.27723 14486 ft 423 kts 40°
2026-04-30 22:27 39.99393 -75.22521 13634 ft 417 kts 40°
2026-04-30 22:28 40.03554 -75.17448 12802 ft 407 kts 41°
2026-04-30 22:28 40.05612 -75.14937 12380 ft 403 kts 41°
2026-04-30 22:29 40.11459 -75.07789 11183 ft 362 kts 41°
2026-04-30 22:29 40.13259 -75.05585 10837 ft 348 kts 40°
2026-04-30 22:30 40.19755 -74.97616 9801 ft 295 kts 40°
2026-04-30 22:31 40.24112 -74.92264 8883 ft 279 kts 40°
2026-04-30 22:32 40.28196 -74.86811 8098 ft 282 kts 44°
2026-04-30 22:32 40.30813 -74.83094 7677 ft 278 kts 44°
2026-04-30 22:33 40.34806 -74.77476 7083 ft 280 kts 44°
2026-04-30 22:33 40.37415 -74.73801 6680 ft 270 kts 44°
2026-04-30 22:34 40.41220 -74.68435 6125 ft 269 kts 44°
2026-04-30 22:35 40.43015 -74.64165 5750 ft 273 kts 71°
2026-04-30 22:36 40.45209 -74.54642 4972 ft 272 kts 71°
2026-04-30 22:36 40.45765 -74.52274 4784 ft 272 kts 71°
2026-04-30 22:37 40.47404 -74.45329 4348 ft 251 kts 71°
2026-04-30 22:37 40.47905 -74.43200 4236 ft 238 kts 70°
2026-04-30 22:37 40.48832 -74.39256 3919 ft 218 kts 70°
2026-04-30 22:38 40.49697 -74.35601 3424 ft 207 kts 70°
2026-04-30 22:38 40.50526 -74.32078 3173 ft 203 kts 70°
2026-04-30 22:39 40.50941 -74.30316 3025 ft 206 kts 70°
2026-04-30 22:39 40.53548 -74.26635 2783 ft 187 kts 28°
2026-04-30 22:40 40.57086 -74.24238 2362 ft 185 kts 23°
2026-04-30 22:41 40.60278 -74.22203 1694 ft 169 kts 23°
2026-04-30 22:41 40.62325 -74.20895 1257 ft 159 kts 22°
2026-04-30 22:42 40.66055 -74.18497 473 ft 142 kts 22°
2026-04-30 22:43 40.67839 -74.17370 71 ft 144 kts 22°
2026-04-30 22:43 40.69244 -74.16482 23 ft 59 kts 26°
2026-04-30 22:44 40.69690 -74.16296 21 ft 11 kts 354°
2026-04-30 22:45 40.69873 -74.16409 20 ft 8 kts 296°
2026-04-30 22:45 40.69907 -74.16575 20 ft 9 kts 274°
2026-04-30 22:46 40.69914 -74.16737 21 ft 9 kts 253°
2026-04-30 22:47 40.69575 -74.16931 21 ft 20 kts 206°
2026-04-30 22:47 40.69316 -74.17097 22 ft 21 kts 206°
2026-04-30 22:48 40.69074 -74.17250 23 ft 19 kts 204°
2026-04-30 22:49 40.68727 -74.17471 23 ft 18 kts 206°
2026-04-30 22:49 40.68416 -74.17669 21 ft 16 kts 206°
2026-04-30 22:50 40.68421 -74.18042 21 ft 12 kts 295°
2026-04-30 22:51 40.68539 -74.18176 23 ft 11 kts 330°
2026-04-30 22:51 40.68574 -74.18360 21 ft 11 kts 275°
2026-04-30 22:52 40.68575 -74.18455 22 ft 10 kts 252°
2026-04-30 22:52 40.68465 -74.18499 22 ft 3 kts 185°
2026-04-30 22:53 40.68450 -74.18500 21 ft 0 kts 185°